This is the latest recevied weather packets stored in our database for station/object KB8SSH. If no packets are shown the sender has not sent any weather packets the latest 10 day(s).
| Time | Temp. | Humidity | Pressure | Rain* | Wind** | Luminosity | Snow |
|---|---|---|---|---|---|---|---|
| 1777761227 | 8.33° C | 51% | 1050.6 hPa | 0 mm | - | 49 W/m² | - |
| 1777760924 | 8.89° C | 52% | 1050.6 hPa | 0 mm | - | 60 W/m² | - |
| 1777760622 | 8.89° C | 52% | 1050.6 hPa | 0 mm | - | 66 W/m² | - |
| 1777760317 | 8.89° C | 52% | 1050.6 hPa | 0 mm | - | 79 W/m² | - |
| 1777760014 | 8.89° C | 52% | 1050.6 hPa | 0 mm | - | 88 W/m² | - |
| 1777759712 | 8.89° C | 53% | 1050.6 hPa | 0 mm | - | 96 W/m² | - |
| 1777759407 | 8.89° C | 55% | 1050.6 hPa | 0 mm | - | 94 W/m² | - |
| 1777759104 | 8.89° C | 54% | 1050.6 hPa | 0 mm | - | 113 W/m² | - |
| 1777758802 | 8.33° C | 57% | 1050.6 hPa | 0 mm | - | 97 W/m² | - |
| 1777758498 | 8.89° C | 56% | 1050.6 hPa | 0 mm | - | 60 W/m² | - |
| 1777758194 | 8.89° C | 54% | 1050.6 hPa | 0 mm | - | 63 W/m² | - |
| 1777757892 | 8.89° C | 54% | 1050.6 hPa | 0 mm | - | 87 W/m² | - |
| 1777757588 | 8.33° C | 52% | 1050.6 hPa | 0 mm | - | 113 W/m² | - |
| 1777757288 | 8.89° C | 45% | 1050.6 hPa | 0 mm | - | 130 W/m² | - |
| 1777756980 | 8.89° C | 47% | 1050.6 hPa | 0 mm | - | 145 W/m² | - |
| 1777756676 | 9.44° C | 50% | 1050.2 hPa | 0 mm | - | 157 W/m² | - |
| 1777756372 | 8.89° C | 50% | 1050.2 hPa | 0 mm | - | 179 W/m² | - |
| 1777756069 | 9.44° C | 49% | 1050.2 hPa | 0 mm | - | 175 W/m² | - |
| 1777755767 | 9.44° C | 50% | 1050.2 hPa | 0 mm | - | 163 W/m² | - |
| 1777755464 | 8.89° C | 48% | 1050.2 hPa | 0 mm | - | 158 W/m² | - |
| 1777755154 | 9.44° C | 48% | 1050.2 hPa | 0 mm | - | 162 W/m² | - |
| 1777754852 | 8.89° C | 52% | 1050.2 hPa | 0 mm | - | 149 W/m² | - |
| 1777754549 | 9.44° C | 53% | 1050.2 hPa | 0 mm | - | 152 W/m² | - |
| 1777754247 | 9.44° C | 50% | 1049.8 hPa | 0 mm | - | 185 W/m² | - |
| 1777753944 | 10° C | 48% | 1050.2 hPa | 0 mm | - | 242 W/m² | - |
* Rain latest hour (hover to see other rain measurements)
** Current wind speed in m/s (hover to see current wind gust speed)